Jackson, KY

11:52 AM EDT on July 20, 2017 (GMT -0400)
Carroll

Weather History for KJKL - March, 2014

Change the Weather History Date:

Thursday, March 20, 2014

  Actual Average Record
Temperature  
Mean Temperature 47 °F 49 °F  
Max Temperature 57 °F 59 °F 86 °F (2012)
Min Temperature 36 °F 38 °F 21 °F (1981)
Degree Days  
Heating Degree Days 18 17  
Month to date heating degree days 441 392  
Since 1 July heating degree days 4042 3692  
Cooling Degree Days 0 0  
Month to date cooling degree days 0 0  
Year to date cooling degree days 0 0  
Moisture  
Dew Point 27 °F    
Average Humidity 51    
Maximum Humidity 76    
Minimum Humidity 26    
Precipitation  
Precipitation 0.00 in 0.14 in 1.26 in (1984)
Month to date precipitation 3.64 2.67  
Year to date precipitation 11.26 10.03  
Snow  
Snow 0.00 in 0.10 in 7.10 in (1996)
Month to date snowfall 8.0 2.1  
Since 1 July snowfall 35.0 21.7  
Snow Depth 0.00 in    
Sea Level Pressure  
Sea Level Pressure 30.08 in    
Wind  
Wind Speed 6 mph (WSW)    
Max Wind Speed 14 mph    
Max Gust Speed 21 mph    
Visibility 9 miles    
Events      
T = Trace of Precipitation, MM = Missing Value Source: NWS Daily Summary

Daily Weather History Graph

Daily Weather History Graph

Search for Another Location

Airport or City:

Trip Planner

Search our weather history database for the weather conditions in past years. The results will help you decide how hot, cold, wet, or windy it might be!

Date:

Astronomy

Mar. 20, 2014 Rise Set
Actual Time 7:36 AM EDT 7:45 PM EDT
Civil Twilight 7:10 AM EDT 8:11 PM EDT
Nautical Twilight 6:40 AM EDT 8:41 PM EDT
Astronomical Twilight 6:09 AM EDT 9:12 PM EDT
Moon 11:58 PM EDT 9:46 AM EDT
Length of Visible Light 13h 00m
Length of Day
12h 08m
Waning Gibbous, 84% of the Moon is Illuminated
Mar 20
Waning Gibbous
Mar 23
Last Quarter
Mar 30
New
Apr 7
First Quarter
Apr 15
Full

Hourly Weather History & Observations

Time (EDT) Temp. Windchill Dew Point Humidity Pressure Visibility Wind Dir Wind Speed Gust Speed Precip Events Conditions
12:53 AM 45.0 °F 41.8 °F 35.1 °F 68% 30.01 in 10.0 mi WSW 5.8 mph - N/A   Clear
1:53 AM 43.0 °F 38.8 °F 35.1 °F 74% 30.03 in 10.0 mi WSW 6.9 mph - N/A   Clear
2:53 AM 42.1 °F 37.1 °F 34.0 °F 73% 30.04 in 10.0 mi WNW 8.1 mph - N/A   Partly Cloudy
3:33 AM 42.1 °F 36.1 °F 33.1 °F 70% 30.04 in 10.0 mi West 10.4 mph - N/A   Mostly Cloudy
3:53 AM 41.0 °F 36.4 °F 33.1 °F 73% 30.04 in 10.0 mi West 6.9 mph - N/A   Overcast
4:53 AM 39.9 °F 33.9 °F 30.9 °F 70% 30.06 in 10.0 mi West 9.2 mph - N/A   Overcast
5:08 AM 39.9 °F 35.1 °F 30.0 °F 68% 30.05 in 10.0 mi Variable 6.9 mph - N/A   Overcast
5:17 AM 39.9 °F 34.5 °F 30.0 °F 68% 30.06 in 10.0 mi WSW 8.1 mph 19.6 mph N/A   Overcast
5:51 AM 37.4 °F 31.4 °F 28.4 °F 70% 30.06 in 10.0 mi WSW 8.1 mph 19.6 mph N/A   Scattered Clouds
5:53 AM 37.9 °F 32.7 °F 28.0 °F 68% 30.07 in 10.0 mi WSW 6.9 mph 17.3 mph N/A   Scattered Clouds
6:53 AM 37.0 °F 31.0 °F 27.0 °F 67% 30.08 in 10.0 mi WSW 8.1 mph - N/A   Clear
7:31 AM 37.0 °F 32.4 °F 27.0 °F 67% 30.09 in 10.0 mi WSW 5.8 mph - N/A   Mostly Cloudy
7:38 AM 36.0 °F 30.3 °F 27.0 °F 70% 30.09 in 2.5 mi WSW 6.9 mph - N/A   Haze
7:46 AM 36.0 °F 32.1 °F 27.0 °F 70% 30.09 in 1.8 mi WSW 4.6 mph - N/A   Haze
7:50 AM 37.4 °F 32.8 °F 26.6 °F 65% 30.09 in 0.8 mi West 5.8 mph - N/A   Haze
7:53 AM 37.0 °F 32.4 °F 27.0 °F 67% 30.09 in 0.2 mi WSW 5.8 mph - N/A   Haze
8:26 AM 37.0 °F 33.3 °F 28.0 °F 70% 30.10 in 3.0 mi Variable 4.6 mph - N/A   Haze
8:53 AM 37.9 °F 34.4 °F 28.9 °F 70% 30.11 in 10.0 mi Variable 4.6 mph - N/A   Overcast
9:53 AM 37.0 °F 30.4 °F 28.0 °F 70% 30.14 in 10.0 mi West 9.2 mph - N/A   Overcast
10:32 AM 37.9 °F 32.1 °F 27.0 °F 65% 30.14 in 10.0 mi WNW 8.1 mph - N/A   Scattered Clouds
10:53 AM 41.0 °F 39.0 °F 28.0 °F 60% 30.14 in 10.0 mi Variable 3.5 mph - N/A   Partly Cloudy
11:53 AM 46.0 °F 41.9 °F 28.0 °F 50% 30.14 in 10.0 mi West 8.1 mph - N/A   Clear
12:53 PM 48.9 °F - 27.0 °F 43% 30.13 in 10.0 mi Variable 4.6 mph - N/A   Clear
1:53 PM 50.0 °F - 23.0 °F 35% 30.12 in 10.0 mi WNW 8.1 mph 18.4 mph N/A   Clear
2:53 PM 53.1 °F - 23.0 °F 31% 30.09 in 10.0 mi WSW 8.1 mph - N/A   Clear
3:53 PM 55.9 °F - 24.1 °F 29% 30.08 in 10.0 mi North - - N/A   Clear
4:53 PM 55.0 °F - 21.0 °F 27% 30.06 in 10.0 mi Variable 4.6 mph - N/A   Clear
5:53 PM 54.0 °F - 21.0 °F 28% 30.06 in 10.0 mi Variable 5.8 mph - N/A   Clear
6:53 PM 52.0 °F - 21.0 °F 30% 30.08 in 10.0 mi WNW 8.1 mph - N/A   Clear
7:53 PM 48.9 °F - 21.0 °F 33% 30.09 in 10.0 mi West 3.5 mph - N/A   Clear
8:53 PM 46.0 °F - 21.9 °F 39% 30.09 in 10.0 mi Calm Calm - N/A   Clear
9:53 PM 45.0 °F 41.8 °F 23.0 °F 42% 30.08 in 10.0 mi SW 5.8 mph - N/A   Clear
10:53 PM 45.0 °F 41.8 °F 23.0 °F 42% 30.08 in 10.0 mi SW 5.8 mph - N/A   Clear
11:53 PM 44.1 °F 42.5 °F 23.0 °F 43% 30.09 in 10.0 mi SSW 3.5 mph - N/A   Clear